Cosmos 2084 Rocket - Orbit

View from above orbital plane
View from above orbital plane
View from above satellite
View from above satellite

Ground track
Ground track

The orbit data is extracted from the following two-line orbital elements,

1 20666U 90055D   13144.18116866  .00000959  00000-0  11973-3 0  8681
2 20666 062.7896 055.5773 0045314 207.2134 152.6583 14.88584290239821
Epoch (UTC): 24 May 2013 04:20:52
Eccentricity: 0.0045314
inclination: 62.7896°
perigee height: 571 km
apogee height: 634 km
right ascension of ascending node: 55.5773°
argument of perigee: 207.2134°
revolutions per day: 14.88584290
mean anomaly at epoch: 152.6583°
orbit number at epoch: 23982

The dashed part of the orbit path shows where the satellite is in the earth's shadow,  

Developed and maintained by Chris Peat, Heavens-Above GmbH. Please read the updated FAQ before sending e-mail. Imprint. DLR